GFSSE_sfc_rhum_267.txt.gz
RH
81 92 91 90 91 93 94 93 94 94 92 92 92 92 92 88 88 88 86 84 82 80 76 78 79 79 78 80 85 88 88 89 89 87 85 82 79 79 83 84 83 79 87
80 87 91 90 91 93 93 92 93 93 92 92 92 92 92 89 89 87 86 83 81 77 75 75 76 78 78 80 87 89 88 87 86 85 86 84 83 82 84 89 87 84 87
85 85 85 90 91 92 92 91 92 92 92 92 92 92 92 90 89 87 85 82 81 77 72 72 72 74 78 82 85 86 87 89 85 84 84 83 83 82 84 89 87 86 86
82 88 85 92 91 92 92 91 92 91 92 92 92 92 91 90 89 87 86 85 82 80 74 71 69 71 77 81 81 80 78 76 75 79 75 78 76 83 82 86 87 87 86
81 81 87 93 92 92 92 92 92 93 94 93 92 92 91 90 89 88 89 88 87 84 77 73 72 76 80 80 78 76 78 80 77 74 81 86 74 78 83 84 84 81 80
74 83 91 94 93 92 92 92 93 94 95 94 93 92 91 90 89 90 91 90 88 83 77 76 77 80 78 77 77 79 81 79 74 77 82 81 71 79 83 85 86 87 82
84 94 91 96 94 92 92 92 93 94 95 94 94 93 92 91 90 92 93 92 90 85 80 79 83 83 80 77 78 77 82 74 68 80 85 72 74 80 79 85 88 91 90
93 94 94 96 95 94 93 94 94 94 95 94 94 94 93 93 92 93 94 94 90 86 81 81 85 86 82 79 79 76 84 69 66 81 87 91 79 80 79 86 89 91 90
89 95 84 80 90 96 96 95 94 94 95 94 94 95 94 94 94 94 94 93 89 85 80 79 83 85 85 82 79 86 88 85 68 75 74 89 84 80 80 84 86 88 89
90 94 86 79 85 90 94 96 95 95 95 94 95 96 94 93 95 95 95 92 88 84 80 77 78 83 84 81 81 86 89 77 64 76 87 87 80 74 76 79 83 86 87
87 93 94 82 89 91 92 94 95 94 94 94 94 95 96 95 96 95 95 92 87 84 80 76 76 80 84 81 80 82 85 63 70 80 88 86 78 73 76 78 80 81 82
88 89 91 94 93 89 81 91 96 90 91 91 93 96 93 96 96 84 94 93 88 85 80 76 75 77 83 76 75 78 69 61 72 82 86 87 79 74 76 80 81 82 83
77 78 83 89 94 92 85 88 94 94 94 94 96 93 90 86 89 96 99 97 97 89 86 78 76 71 64 66 70 69 68 64 77 79 86 87 81 75 76 80 81 82 85
69 70 76 82 88 87 91 86 89 86 88 89 91 89 88 81 87 96 95 98 97 95 88 79 76 66 62 56 57 57 55 63 81 85 90 88 86 78 76 78 80 83 85
65 62 69 76 84 81 91 85 82 78 80 82 87 82 84 76 79 85 87 88 88 89 85 79 72 63 61 57 59 52 55 61 77 79 91 90 88 84 79 77 79 81 83
56 64 65 71 77 77 83 78 76 71 74 78 82 71 82 76 72 77 79 76 80 76 79 73 70 62 60 59 61 54 57 62 68 81 88 92 90 88 86 82 79 79 82
58 59 64 66 72 72 75 72 68 65 67 75 76 72 75 73 66 81 71 70 69 68 71 66 65 64 65 58 60 62 61 60 69 74 82 92 93 92 90 88 87 83 84
49 64 75 62 69 65 68 63 60 60 66 70 68 70 68 76 61 73 63 66 64 62 65 61 71 69 66 67 67 65 63 64 70 71 77 82 88 88 94 91 91 88 88
28 64 77 71 64 62 59 57 62 60 64 59 66 68 65 78 63 61 59 62 65 59 65 59 71 65 71 72 68 67 66 68 64 62 69 75 87 90 97 95 94 94 92
18 52 57 55 61 60 63 59 59 59 64 55 65 65 62 73 70 71 70 56 73 65 67 68 65 71 69 72 53 68 81 82 82 71 71 78 81 83 93 94 96 96 94
13 32 53 53 62 63 73 72 57 70 58 59 62 64 66 66 76 67 76 63 67 66 62 67 69 64 74 81 91 93 95 93 95 93 91 90 77 88 95 97 98 95 92
21 30 52 50 63 61 58 57 56 54 58 62 56 69 66 62 68 68 70 74 60 68 69 67 72 76 70 87 87 96 97 96 97 95 96 95 98 98 96 96 98 93 91
21 26 53 50 60 60 58 51 66 55 72 58 70 67 68 64 67 70 65 77 64 64 66 62 69 67 62 82 76 87 98 97 99 95 96 98 98 98 94 95 98 96 93
13 28 38 53 52 59 59 56 62 63 61 63 59 62 70 66 64 63 67 65 71 59 73 63 60 65 72 59 92 73 81 92 98 99 85 95 96 90 94 93 94 96 92
35 23 29 34 67 58 60 59 58 58 59 56 59 62 68 71 66 62 70 63 82 64 68 68 65 64 75 55 81 88 88 94 94 97 99 95 92 91 90 92 95 97 93
48 48 49 32 44 70 71 61 61 58 59 57 55 63 72 75 70 68 64 67 62 74 66 73 65 60 61 74 57 83 78 82 92 93 97 97 97 95 95 89 92 93 91

GFSSE_sfc_rhum_270.txt.gz
RH
87 92 93 92 93 92 93 91 91 92 92 91 89 88 89 89 89 87 86 85 83 81 79 80 82 83 80 83 86 90 91 91 89 86 84 80 76 80 82 86 86 84 88
82 90 93 92 92 91 92 91 92 92 92 92 91 89 90 89 88 87 86 84 81 76 76 79 81 79 82 85 89 89 89 90 91 88 86 81 81 81 82 86 87 87 88
87 88 89 92 91 91 91 91 92 92 91 92 92 90 90 89 88 86 85 83 80 76 73 77 77 78 80 85 89 90 88 88 88 88 87 86 85 81 81 86 86 87 86
84 87 88 92 91 90 91 91 91 91 92 93 92 90 90 89 88 87 86 84 81 76 70 73 75 77 80 84 82 81 79 81 88 89 87 84 78 82 82 85 87 85 84
84 83 89 93 92 91 92 92 92 92 93 94 93 90 90 89 88 88 89 88 84 79 71 70 73 77 83 81 80 84 83 87 88 83 83 70 75 78 81 81 82 82 87
87 86 96 94 93 92 92 92 92 92 93 94 93 91 90 89 89 91 93 91 86 82 75 73 75 81 81 81 83 84 87 88 87 86 78 76 71 79 78 81 84 84 89
94 92 96 96 94 92 92 93 93 93 93 93 93 93 91 90 91 94 94 91 87 84 81 81 83 82 81 83 84 80 86 87 85 90 72 71 78 78 79 84 86 89 90
94 89 92 95 94 93 93 94 94 94 94 94 94 94 92 92 94 95 94 91 86 82 83 85 85 84 81 84 84 85 86 84 84 91 89 73 84 78 81 84 87 91 90
94 88 84 94 94 96 96 96 96 95 94 94 94 94 94 94 96 95 94 89 83 81 80 84 85 84 82 84 87 85 82 86 92 89 84 95 79 79 77 84 86 88 89
97 95 92 95 90 96 97 97 97 96 96 95 94 94 94 94 96 96 94 88 84 80 78 79 82 80 81 84 89 86 80 81 84 93 94 90 84 77 79 80 85 87 88
91 94 84 78 91 95 94 95 96 96 96 96 94 94 96 94 97 96 95 90 85 81 78 77 79 80 80 80 89 85 79 76 86 93 96 87 80 74 77 80 82 83 83
91 90 91 82 87 90 81 93 96 93 94 95 95 94 97 97 97 93 94 90 86 82 79 77 78 77 80 76 80 82 70 75 87 94 92 87 79 74 77 80 82 82 83
94 90 86 84 82 88 82 91 94 96 98 98 98 97 98 96 97 98 99 96 97 87 85 79 75 69 64 68 75 76 71 78 91 90 90 88 81 75 78 80 81 83 84
93 92 94 87 82 81 80 87 86 92 96 98 98 97 98 99 99 99 99 98 98 97 89 82 78 68 64 59 59 66 72 76 91 95 94 89 86 79 78 79 81 83 84
85 87 92 94 88 84 82 85 87 93 94 95 97 93 92 95 96 98 98 98 98 98 92 86 80 69 63 60 59 59 69 74 82 86 98 91 89 84 80 79 80 81 78
74 88 89 91 92 93 91 81 87 88 90 92 92 88 92 87 91 95 98 97 96 95 94 86 80 71 62 60 61 62 69 74 82 82 96 93 91 89 86 81 77 79 76
69 77 88 88 86 94 95 91 87 83 83 86 87 85 88 86 88 87 90 91 89 88 88 86 79 73 67 65 66 72 73 72 75 82 90 93 92 92 91 89 84 84 80
62 75 85 83 85 90 89 85 80 78 80 80 82 81 80 80 79 88 83 82 80 84 79 84 78 76 73 71 70 75 75 74 77 81 82 91 96 88 93 92 91 87 85
63 70 81 86 86 88 82 80 77 74 76 75 78 79 72 80 75 81 78 79 78 75 76 76 80 76 77 73 69 78 78 74 78 73 79 82 92 95 95 95 93 94 91
41 70 71 78 79 83 82 75 72 72 73 72 73 75 71 72 76 73 73 74 74 72 72 80 74 78 74 70 57 78 79 76 80 73 78 83 94 95 97 95 96 96 94
24 78 68 70 73 78 82 73 72 73 71 70 68 71 71 61 78 72 69 67 72 68 67 69 72 72 78 83 96 98 99 93 91 93 94 92 90 92 97 98 97 98 95
18 31 72 68 66 69 68 63 65 61 64 63 67 70 71 63 73 72 69 68 66 69 71 69 66 78 69 90 93 97 99 97 97 97 96 96 95 96 96 97 95 96 93
50 42 36 48 60 65 63 73 71 79 71 66 68 71 69 65 65 71 70 66 68 68 68 65 62 58 64 89 87 89 99 97 99 97 97 99 98 99 99 98 93 95 95
57 53 54 52 61 70 71 73 74 61 67 63 62 65 66 66 63 70 68 70 70 66 69 65 62 57 57 76 95 80 88 94 98 99 92 96 98 99 98 100 99 98 96
58 58 58 57 64 66 81 71 80 66 59 60 62 62 72 69 64 64 68 67 71 69 68 64 65 71 60 54 65 91 93 97 95 97 99 98 91 94 98 99 99 99 98
62 63 63 61 61 70 71 83 77 79 71 71 65 69 74 73 68 64 65 68 66 69 69 69 62 62 61 56 64 83 77 91 97 96 98 99 98 98 99 98 99 98 96

GFSSE_sfc_rhum_273.txt.gz
RH
96 95 86 92 90 90 92 93 92 91 89 89 89 89 89 88 88 88 87 86 84 81 78 79 83 84 81 82 87 90 92 90 88 84 81 78 75 80 83 87 87 82 84
87 93 94 92 90 89 90 91 92 91 89 90 90 90 89 88 89 88 86 85 83 79 77 79 82 81 82 85 89 90 92 92 90 86 83 81 79 80 82 88 89 85 85
91 90 94 92 89 88 89 90 91 90 88 88 89 89 88 88 88 87 85 82 81 80 78 78 79 82 84 87 88 86 89 91 91 89 88 90 83 78 79 88 88 85 82
90 90 94 93 90 89 91 90 90 90 89 88 89 89 89 88 88 87 85 82 81 81 78 77 79 82 82 84 83 83 90 92 91 92 90 88 78 81 82 84 85 82 80
90 90 93 93 92 90 92 92 91 92 92 90 90 89 89 88 88 88 88 85 79 79 77 76 75 77 82 85 84 90 91 91 89 76 77 78 74 76 80 80 83 84 86
90 89 97 94 93 91 92 92 92 93 93 91 90 90 89 89 90 92 92 88 82 78 76 74 76 81 85 88 90 91 92 90 88 72 74 76 72 78 77 80 83 87 87
92 96 96 96 93 91 91 92 93 94 94 92 91 90 90 90 93 94 92 90 88 84 82 81 83 84 86 87 90 91 91 89 88 86 68 72 78 81 78 79 84 88 89
95 96 95 95 94 93 92 94 94 94 94 94 93 92 91 93 95 94 91 88 87 87 87 86 86 85 86 87 89 91 91 87 87 84 70 74 85 78 80 79 87 89 87
94 96 96 96 95 96 96 96 96 95 95 95 94 93 94 96 96 93 89 84 83 85 87 88 87 85 84 85 87 91 92 93 97 94 71 74 84 79 76 84 86 87 88
90 95 97 98 97 97 97 97 97 97 96 96 95 95 96 97 96 93 88 82 80 81 83 86 87 85 88 88 86 88 90 90 96 97 98 91 80 78 77 83 85 87 88
83 81 80 92 96 91 98 96 97 97 96 96 96 95 98 97 97 95 91 85 81 78 78 80 84 88 89 90 86 86 85 90 96 98 98 89 81 76 79 80 84 84 80
86 88 90 88 83 85 89 96 98 95 97 97 97 96 98 96 98 94 90 87 83 80 76 73 76 84 82 83 88 84 84 89 96 98 98 88 80 76 78 81 82 82 80
85 84 94 88 93 92 89 88 97 96 98 99 98 98 99 92 92 99 98 96 96 85 84 76 71 69 72 79 81 82 83 90 97 96 94 88 81 76 78 80 81 80 80
88 85 82 82 78 83 87 88 86 86 90 90 99 99 99 96 91 93 99 98 97 96 87 80 76 67 65 64 71 80 82 90 97 98 96 90 86 79 78 79 80 81 80
92 90 84 87 80 78 82 84 84 83 87 89 99 99 99 99 98 92 98 99 98 97 91 86 78 68 62 62 64 75 79 84 95 95 99 92 90 85 79 78 80 79 78
83 95 89 88 80 77 77 82 83 85 91 99 98 97 97 98 98 99 99 99 98 97 96 88 82 72 63 64 63 68 77 83 88 94 98 96 92 90 86 81 78 75 76
78 86 96 88 90 83 77 80 80 86 94 96 95 96 96 96 97 97 98 98 97 98 94 93 87 80 69 64 68 79 81 85 79 90 94 97 95 93 91 88 78 77 80
72 85 91 88 89 91 81 80 78 86 91 89 91 90 90 89 94 97 96 97 97 97 96 94 88 83 74 73 78 88 86 82 86 92 84 96 98 92 94 91 88 88 85
33 78 90 92 92 94 93 85 86 89 87 84 86 85 85 85 86 90 89 92 94 93 91 88 91 81 80 78 76 89 91 87 86 83 90 96 97 97 97 95 93 94 90
37 56 83 90 90 94 95 93 90 88 86 82 81 81 80 80 82 87 85 87 86 88 90 92 88 87 78 74 62 81 93 91 93 90 84 89 96 97 98 97 95 96 93
54 54 55 90 91 94 96 92 93 91 86 83 79 76 77 72 80 82 80 81 82 80 79 82 81 83 80 84 98 99 98 95 90 96 95 96 98 98 97 97 97 99 96
59 59 57 56 70 91 94 92 89 83 78 78 78 77 77 70 75 77 76 79 79 77 82 80 77 86 73 90 93 97 99 97 98 97 98 98 98 98 98 96 94 94 98
65 64 62 63 66 63 83 89 88 93 90 85 82 78 78 72 66 74 73 72 76 74 76 74 73 73 69 93 93 93 100 98 99 99 99 99 98 98 98 96 91 93 95
68 66 66 64 73 67 80 83 84 79 79 73 71 72 72 75 68 68 73 70 72 73 72 71 70 65 71 75 97 87 90 94 97 99 95 99 99 99 99 97 94 95 95
68 69 66 66 75 78 84 80 91 80 70 67 74 75 72 74 73 64 73 72 72 71 70 70 68 68 63 58 67 95 94 98 96 98 96 99 98 99 99 98 96 94 95
69 69 67 69 70 75 82 85 88 90 80 81 74 81 77 76 77 70 66 72 71 72 69 72 68 67 62 56 60 77 73 84 98 97 98 98 95 99 95 98 99 96 96

GFSSE_sfc_rhum_276.txt.gz
RH
98 89 92 91 93 93 92 91 90 89 89 89 89 90 89 89 89 89 87 85 83 76 74 80 84 82 80 80 86 90 90 88 85 83 80 78 78 80 83 85 82 73 82
94 89 95 91 93 93 92 90 90 90 90 89 90 90 90 89 89 88 86 84 75 73 77 80 82 81 82 86 90 91 92 90 90 84 77 80 81 80 83 86 84 78 86
94 89 95 92 92 92 91 90 90 90 89 89 89 89 89 88 88 87 86 82 76 76 75 77 77 79 83 85 91 91 92 90 90 90 86 79 76 81 81 86 84 82 83
88 87 96 92 91 92 91 90 90 89 89 88 88 88 89 88 87 86 86 85 82 78 77 76 76 81 80 84 91 92 91 91 92 92 86 79 76 80 80 82 82 80 76
89 87 97 94 93 92 92 91 89 88 88 88 89 89 89 88 86 85 86 86 84 81 78 78 78 77 83 88 92 91 89 88 86 81 76 75 76 76 77 80 82 82 82
96 96 97 95 94 93 92 92 91 90 90 90 89 88 88 87 87 87 85 85 84 82 77 74 77 83 90 92 93 92 90 88 78 60 73 76 75 76 78 80 84 86 89
96 97 97 96 94 93 93 93 93 92 92 91 90 90 89 90 90 90 89 86 84 83 82 80 82 87 93 93 93 92 90 88 82 68 71 76 79 80 77 79 83 87 89
95 96 96 95 94 93 94 95 95 94 94 93 92 92 92 93 92 90 89 89 88 87 86 85 87 88 92 92 92 91 90 86 80 71 70 81 84 79 74 78 81 80 84
94 91 97 97 95 95 96 96 96 96 95 95 94 94 96 96 92 89 88 87 87 88 87 85 88 90 90 91 92 94 94 93 92 76 68 76 84 76 76 81 82 83 86
97 86 87 98 98 98 97 96 96 96 96 95 95 96 97 96 93 88 86 86 88 89 88 87 87 86 88 90 92 93 94 94 95 93 74 70 75 74 79 83 84 86 87
96 94 86 88 97 99 98 97 96 96 96 96 95 96 99 99 97 91 86 85 86 88 88 87 87 89 90 90 91 92 91 94 95 95 94 78 76 74 74 84 85 80 77
93 95 96 87 89 98 91 98 99 97 98 98 98 97 99 93 99 93 89 84 83 84 86 87 87 88 85 87 87 86 90 92 94 94 94 88 81 75 78 81 80 77 78
77 85 84 78 94 86 85 99 98 97 98 99 98 99 99 86 90 99 98 96 94 83 83 82 84 82 84 83 85 85 89 92 94 92 91 88 82 76 77 79 78 77 78
81 83 84 83 80 80 90 95 88 88 86 88 99 99 96 86 85 91 99 97 95 92 83 78 76 77 79 82 83 84 88 91 93 93 93 90 86 79 77 78 78 78 78
92 88 86 90 87 83 97 92 92 81 83 82 96 98 98 88 83 83 97 98 97 95 88 83 77 70 71 72 80 81 84 89 93 92 94 92 90 85 78 78 78 79 79
89 94 92 87 84 81 89 92 88 80 79 82 87 98 98 97 88 86 91 99 98 96 92 86 80 73 68 69 71 83 82 87 92 94 93 91 93 90 85 80 79 78 77
31 85 95 89 88 90 88 86 80 78 79 85 88 97 96 97 98 96 99 99 98 98 93 90 85 81 71 66 69 77 84 88 88 92 92 93 91 94 91 88 77 80 79
54 58 89 87 84 90 86 86 77 79 84 88 96 97 95 95 96 98 98 98 98 98 96 94 89 84 78 73 78 88 89 88 88 93 92 92 94 88 93 92 87 85 84
58 57 65 94 86 91 90 91 90 82 85 89 92 93 93 92 92 94 95 96 98 98 97 92 92 83 80 76 76 90 92 90 89 86 90 93 94 94 92 94 91 92 90
60 60 60 62 89 90 94 94 93 94 87 86 90 88 89 87 89 90 89 93 93 96 97 95 92 90 80 76 63 80 93 92 93 93 89 88 94 95 95 94 89 91 94
64 66 65 61 68 88 97 96 97 95 91 89 88 85 86 84 86 89 85 90 89 88 88 90 91 88 88 86 93 98 98 93 93 96 95 95 96 94 96 95 93 94 90
68 69 67 66 66 73 84 92 92 92 93 87 84 85 86 83 83 83 82 86 87 84 89 88 85 91 86 92 92 96 97 94 98 95 95 96 97 94 92 94 94 94 94
72 72 68 69 73 72 79 86 94 94 94 88 90 86 84 82 78 79 80 82 86 82 85 84 81 78 78 91 92 89 99 95 97 98 98 96 97 98 90 88 90 89 90
73 70 69 70 75 69 82 80 89 88 88 83 84 84 81 83 78 75 76 80 83 82 80 82 78 75 80 74 94 83 91 91 96 97 94 98 98 97 95 91 90 88 89
70 72 72 69 72 76 82 79 91 95 84 84 91 91 85 86 83 73 76 79 79 83 80 81 80 76 71 63 77 94 94 96 94 95 99 98 98 96 95 92 88 91 90
70 70 73 68 70 75 82 86 88 91 93 93 81 85 90 87 89 85 73 77 76 78 80 80 77 78 71 67 73 73 70 75 97 94 96 98 96 97 92 95 90 90 91